Location: Newark
(23.1300°N, 73.6109°E)
Time: 17:03:08
(UTC+00:00)

AO-7 - Pass Details

Date: 15 July 2020
Orbit: 1440 x 1458 km, 101.8° (Epoch: 05 August)

Event Time Altitude Azimuth Distance (km) Brightness Sun altitude
Rises 23:32:51 0° 6° (N) 4,563 ? -12.4°
Reaches altitude 10° 23:35:46 10° 0° (N) 3,583 ? -11.8°
Maximum altitude 23:43:33 45° 292° (WNW) 1,902 ? -10.3°
Drops below altitude 10° 23:51:19 10° 222° (SW) 3,569 ? -8.7°
Enters shadow 23:52:19 - 220° (SW) 3,894 ? -8.5°
